Tabellarische Ansicht des 30.7.2021


Die einzelnen Werte des Tages

Uhrzeit Temperatur Luftdruck Luftfeuchte Wind Hi-Wind Taupunkt THW Index Wind Chill Heat Index Solar- strahlung Regen

00:00

16.4 C

1007.1 hpa

65 %

0.0 km/h aus 117

3.2 km/h aus SW

9.8 C

16.1 C

16.4 C

16.1 C

0 W/m

0.00 mm

00:05

16.3 C

1007.1 hpa

66 %

0.0 km/h aus 115

0.0 km/h aus ---

9.9 C

15.9 C

16.3 C

15.9 C

0 W/m

0.00 mm

00:10

16.2 C

1007.1 hpa

68 %

0.0 km/h aus 114

0.0 km/h aus ---

10.3 C

15.8 C

16.2 C

15.8 C

0 W/m

0.00 mm

00:15

16.1 C

1007.2 hpa

70 %

0.0 km/h aus 114

0.0 km/h aus ---

10.6 C

15.7 C

16.1 C

15.7 C

0 W/m

0.00 mm

00:20

15.9 C

1007.2 hpa

70 %

0.0 km/h aus 117

0.0 km/h aus ---

10.5 C

15.6 C

15.9 C

15.6 C

0 W/m

0.00 mm

00:25

15.8 C

1007.2 hpa

71 %

0.0 km/h aus 116

4.8 km/h aus SW

10.6 C

15.6 C

15.8 C

15.6 C

0 W/m

0.00 mm

00:30

15.7 C

1007.1 hpa

72 %

1.6 km/h aus 116

3.2 km/h aus SW

10.7 C

15.4 C

15.7 C

15.4 C

0 W/m

0.00 mm

00:35

15.6 C

1007.1 hpa

72 %

0.0 km/h aus 116

0.0 km/h aus ---

10.6 C

15.3 C

15.6 C

15.3 C

0 W/m

0.00 mm

00:40

15.5 C

1007.1 hpa

71 %

0.0 km/h aus 114

0.0 km/h aus ---

10.3 C

15.2 C

15.5 C

15.2 C

0 W/m

0.00 mm

00:45

15.3 C

1007.3 hpa

70 %

0.0 km/h aus 117

0.0 km/h aus ---

9.9 C

15.0 C

15.3 C

15.0 C

0 W/m

0.00 mm

00:50

15.2 C

1007.3 hpa

70 %

0.0 km/h aus 116

1.6 km/h aus SW

9.8 C

14.8 C

15.2 C

14.8 C

0 W/m

0.00 mm

00:55

15.1 C

1007.3 hpa

71 %

0.0 km/h aus 117

4.8 km/h aus SW

9.9 C

14.8 C

15.1 C

14.8 C

0 W/m

0.00 mm

01:00

15.0 C

1007.2 hpa

71 %

0.0 km/h aus 116

0.0 km/h aus ---

9.8 C

14.6 C

15.0 C

14.6 C

0 W/m

0.00 mm

01:05

14.9 C

1007.2 hpa

71 %

0.0 km/h aus 115

0.0 km/h aus ---

9.7 C

14.5 C

14.9 C

14.5 C

0 W/m

0.00 mm

01:10

14.8 C

1007.2 hpa

72 %

0.0 km/h aus 118

3.2 km/h aus SW

9.8 C

14.4 C

14.8 C

14.4 C

0 W/m

0.00 mm

01:15

14.7 C

1007.0 hpa

72 %

0.0 km/h aus 117

0.0 km/h aus ---

9.7 C

14.3 C

14.7 C

14.3 C

0 W/m

0.00 mm

01:20

14.6 C

1007.0 hpa

72 %

0.0 km/h aus 116

0.0 km/h aus ---

9.6 C

14.2 C

14.6 C

14.2 C

0 W/m

0.00 mm

01:25

14.4 C

1007.0 hpa

73 %

0.0 km/h aus 116

0.0 km/h aus ---

9.7 C

14.1 C

14.4 C

14.1 C

0 W/m

0.00 mm

01:30

14.3 C

1007.0 hpa

73 %

0.0 km/h aus 114

0.0 km/h aus ---

9.6 C

14.0 C

14.3 C

14.0 C

0 W/m

0.00 mm

01:35

14.2 C

1007.0 hpa

74 %

0.0 km/h aus 116

0.0 km/h aus ---

9.6 C

13.8 C

14.2 C

13.8 C

0 W/m

0.00 mm

01:40

14.1 C

1007.0 hpa

74 %

0.0 km/h aus 116

0.0 km/h aus ---

9.5 C

13.7 C

14.1 C

13.7 C

0 W/m

0.00 mm

01:45

13.9 C

1006.9 hpa

74 %

0.0 km/h aus 117

0.0 km/h aus ---

9.4 C

13.6 C

13.9 C

13.6 C

0 W/m

0.00 mm

01:50

13.8 C

1006.9 hpa

75 %

0.0 km/h aus 116

0.0 km/h aus ---

9.5 C

13.6 C

13.8 C

13.6 C

0 W/m

0.00 mm

01:55

13.7 C

1006.9 hpa

75 %

0.0 km/h aus 114

0.0 km/h aus ---

9.4 C

13.4 C

13.7 C

13.4 C

0 W/m

0.00 mm

02:00

13.6 C

1006.9 hpa

75 %

0.0 km/h aus 116

0.0 km/h aus ---

9.3 C

13.3 C

13.6 C

13.3 C

0 W/m

0.00 mm

02:05

13.5 C

1006.9 hpa

75 %

0.0 km/h aus 116

0.0 km/h aus ---

9.2 C

13.2 C

13.5 C

13.2 C

0 W/m

0.00 mm

02:10

13.4 C

1006.9 hpa

76 %

0.0 km/h aus 118

0.0 km/h aus ---

9.3 C

13.2 C

13.4 C

13.2 C

0 W/m

0.00 mm

02:15

13.3 C

1006.9 hpa

76 %

0.0 km/h aus 114

3.2 km/h aus SW

9.2 C

13.1 C

13.3 C

13.1 C

0 W/m

0.00 mm

02:20

13.2 C

1006.9 hpa

76 %

0.0 km/h aus 112

0.0 km/h aus ---

9.1 C

12.9 C

13.2 C

12.9 C

0 W/m

0.00 mm

02:25

13.2 C

1006.9 hpa

76 %

0.0 km/h aus 117

0.0 km/h aus ---

9.0 C

12.9 C

13.2 C

12.9 C

0 W/m

0.00 mm

02:30

13.1 C

1006.8 hpa

77 %

1.6 km/h aus 117

3.2 km/h aus SW

9.1 C

12.8 C

13.1 C

12.8 C

0 W/m

0.00 mm

02:35

13.0 C

1006.8 hpa

77 %

3.2 km/h aus 117

4.8 km/h aus SW

9.1 C

12.8 C

13.0 C

12.8 C

0 W/m

0.00 mm

02:40

12.9 C

1006.8 hpa

79 %

4.8 km/h aus 117

8.0 km/h aus SW

9.4 C

12.8 C

12.9 C

12.8 C

0 W/m

0.00 mm

02:45

12.9 C

1006.7 hpa

79 %

6.4 km/h aus 114

8.0 km/h aus SW

9.3 C

12.5 C

12.7 C

12.7 C

0 W/m

0.00 mm

02:50

12.8 C

1006.7 hpa

80 %

4.8 km/h aus 116

8.0 km/h aus SW

9.4 C

12.6 C

12.8 C

12.6 C

0 W/m

0.00 mm

02:55

12.7 C

1006.7 hpa

81 %

3.2 km/h aus 116

6.4 km/h aus SW

9.5 C

12.6 C

12.7 C

12.6 C

0 W/m

0.00 mm

03:00

12.7 C

1006.8 hpa

81 %

3.2 km/h aus 117

8.0 km/h aus SW

9.5 C

12.5 C

12.7 C

12.5 C

0 W/m

0.00 mm

03:05

12.6 C

1006.8 hpa

81 %

3.2 km/h aus 117

6.4 km/h aus SW

9.4 C

12.4 C

12.6 C

12.4 C

0 W/m

0.00 mm

03:10

12.6 C

1006.8 hpa

82 %

1.6 km/h aus 114

4.8 km/h aus SW

9.6 C

12.4 C

12.6 C

12.4 C

0 W/m

0.00 mm

03:15

12.6 C

1006.7 hpa

82 %

0.0 km/h aus 116

1.6 km/h aus SW

9.6 C

12.4 C

12.6 C

12.4 C

0 W/m

0.00 mm

03:20

12.5 C

1006.7 hpa

82 %

0.0 km/h aus 117

1.6 km/h aus SW

9.5 C

12.4 C

12.5 C

12.4 C

0 W/m

0.00 mm

03:25

12.4 C

1006.7 hpa

82 %

0.0 km/h aus 117

3.2 km/h aus SW

9.5 C

12.3 C

12.4 C

12.3 C

0 W/m

0.00 mm

03:30

12.4 C

1006.7 hpa

82 %

0.0 km/h aus 116

0.0 km/h aus ---

9.4 C

12.3 C

12.4 C

12.3 C

0 W/m

0.00 mm

03:35

12.3 C

1006.7 hpa

82 %

0.0 km/h aus 114

3.2 km/h aus SW

9.3 C

12.2 C

12.3 C

12.2 C

0 W/m

0.00 mm

03:40

12.3 C

1006.7 hpa

82 %

0.0 km/h aus 115

3.2 km/h aus SW

9.3 C

12.2 C

12.3 C

12.2 C

0 W/m

0.00 mm

03:45

12.2 C

1006.7 hpa

82 %

0.0 km/h aus 117

3.2 km/h aus SW

9.2 C

12.1 C

12.2 C

12.1 C

0 W/m

0.00 mm

03:50

12.2 C

1006.7 hpa

82 %

1.6 km/h aus 117

3.2 km/h aus SW

9.2 C

12.1 C

12.2 C

12.1 C

0 W/m

0.00 mm

03:55

12.1 C

1006.7 hpa

82 %

3.2 km/h aus 117

4.8 km/h aus SW

9.1 C

12.0 C

12.1 C

12.0 C

0 W/m

0.00 mm

04:00

12.1 C

1006.6 hpa

83 %

0.0 km/h aus 115

3.2 km/h aus SW

9.3 C

12.0 C

12.1 C

12.0 C

0 W/m

0.00 mm

04:05

12.1 C

1006.6 hpa

83 %

4.8 km/h aus 114

8.0 km/h aus SW

9.3 C

11.9 C

12.1 C

11.9 C

0 W/m

0.00 mm

04:10

12.0 C

1006.6 hpa

83 %

4.8 km/h aus 116

8.0 km/h aus SW

9.2 C

11.9 C

12.0 C

11.9 C

0 W/m

0.00 mm

04:15

11.9 C

1006.5 hpa

84 %

4.8 km/h aus 116

8.0 km/h aus SW

9.3 C

11.9 C

11.9 C

11.9 C

0 W/m

0.00 mm

04:20

11.9 C

1006.5 hpa

84 %

4.8 km/h aus 117

8.0 km/h aus SW

9.3 C

11.9 C

11.9 C

11.9 C

0 W/m

0.00 mm

04:25

11.9 C

1006.5 hpa

84 %

4.8 km/h aus 117

6.4 km/h aus SW

9.3 C

11.8 C

11.9 C

11.8 C

0 W/m

0.00 mm

04:30

11.8 C

1006.5 hpa

84 %

4.8 km/h aus 115

6.4 km/h aus SW

9.2 C

11.8 C

11.8 C

11.8 C

0 W/m

0.00 mm

04:35

11.8 C

1006.5 hpa

84 %

4.8 km/h aus 113

8.0 km/h aus SW

9.2 C

11.7 C

11.8 C

11.7 C

0 W/m

0.00 mm

04:40

11.8 C

1006.5 hpa

85 %

6.4 km/h aus 117

8.0 km/h aus SW

9.3 C

11.3 C

11.4 C

11.7 C

0 W/m

0.00 mm

04:45

11.7 C

1006.6 hpa

85 %

4.8 km/h aus 116

8.0 km/h aus SW

9.3 C

11.7 C

11.7 C

11.7 C

0 W/m

0.00 mm

04:50

11.7 C

1006.6 hpa

85 %

4.8 km/h aus 117

8.0 km/h aus SW

9.3 C

11.7 C

11.7 C

11.7 C

0 W/m

0.00 mm

04:55

11.7 C

1006.6 hpa

85 %

4.8 km/h aus 115

6.4 km/h aus SW

9.2 C

11.6 C

11.7 C

11.6 C

0 W/m

0.00 mm

05:00

11.7 C

1006.5 hpa

85 %

4.8 km/h aus 113

6.4 km/h aus SW

9.2 C

11.6 C

11.7 C

11.6 C

0 W/m

0.00 mm

05:05

11.6 C

1006.5 hpa

85 %

6.4 km/h aus 116

9.7 km/h aus SW

9.2 C

11.2 C

11.2 C

11.6 C

0 W/m

0.00 mm

05:10

11.6 C

1006.5 hpa

86 %

6.4 km/h aus 117

9.7 km/h aus SW

9.3 C

11.2 C

11.2 C

11.6 C

0 W/m

0.00 mm

05:15

11.6 C

1006.5 hpa

86 %

6.4 km/h aus 116

9.7 km/h aus SW

9.3 C

11.2 C

11.2 C

11.6 C

0 W/m

0.00 mm

05:20

11.6 C

1006.5 hpa

86 %

6.4 km/h aus 115

8.0 km/h aus SW

9.3 C

11.2 C

11.2 C

11.6 C

0 W/m

0.00 mm

05:25

11.5 C

1006.5 hpa

86 %

6.4 km/h aus 115

8.0 km/h aus SW

9.2 C

11.1 C

11.1 C

11.5 C

0 W/m

0.00 mm

05:30

11.5 C

1006.4 hpa

86 %

6.4 km/h aus 114

9.7 km/h aus SW

9.2 C

11.1 C

11.1 C

11.5 C

5 W/m

0.00 mm

05:35

11.5 C

1006.4 hpa

86 %

6.4 km/h aus 116

8.0 km/h aus SW

9.2 C

11.1 C

11.1 C

11.5 C

6 W/m

0.00 mm

05:40

11.5 C

1006.4 hpa

87 %

6.4 km/h aus 117

8.0 km/h aus SW

9.4 C

11.1 C

11.1 C

11.5 C

9 W/m

0.00 mm

05:45

11.5 C

1006.4 hpa

87 %

4.8 km/h aus 117

8.0 km/h aus SW

9.4 C

11.5 C

11.5 C

11.5 C

11 W/m

0.00 mm

05:50

11.5 C

1006.4 hpa

87 %

6.4 km/h aus 114

9.7 km/h aus SW

9.4 C

11.1 C

11.1 C

11.5 C

13 W/m

0.00 mm

05:55

11.5 C

1006.4 hpa

87 %

6.4 km/h aus 115

9.7 km/h aus SW

9.4 C

11.1 C

11.1 C

11.5 C

16 W/m

0.00 mm

06:00

11.6 C

1006.5 hpa

87 %

6.4 km/h aus 117

9.7 km/h aus SW

9.5 C

11.2 C

11.2 C

11.6 C

18 W/m

0.00 mm

06:05

11.6 C

1006.5 hpa

88 %

6.4 km/h aus 117

9.7 km/h aus SW

9.6 C

11.2 C

11.2 C

11.6 C

19 W/m

0.00 mm

06:10

11.6 C

1006.5 hpa

88 %

6.4 km/h aus 116

9.7 km/h aus SW

9.7 C

11.2 C

11.2 C

11.6 C

21 W/m

0.00 mm

06:15

11.7 C

1006.4 hpa

88 %

6.4 km/h aus 113

11.3 km/h aus SSW

9.7 C

11.3 C

11.3 C

11.7 C

22 W/m

0.00 mm

06:20

11.8 C

1006.4 hpa

88 %

4.8 km/h aus 115

9.7 km/h aus SSW

9.9 C

11.8 C

11.8 C

11.8 C

23 W/m

0.00 mm

06:25

11.8 C

1006.4 hpa

88 %

4.8 km/h aus 116

8.0 km/h aus SSW

9.9 C

11.8 C

11.8 C

11.8 C

26 W/m

0.00 mm

06:30

11.9 C

1006.4 hpa

89 %

6.4 km/h aus 118

9.7 km/h aus SSW

10.2 C

11.7 C

11.6 C

12.0 C

30 W/m

0.00 mm

06:35

12.1 C

1006.4 hpa

89 %

8.0 km/h aus 117

11.3 km/h aus SSW

10.3 C

11.4 C

11.4 C

12.1 C

34 W/m

0.00 mm

06:40

12.1 C

1006.4 hpa

89 %

8.0 km/h aus 115

14.5 km/h aus S

10.4 C

11.6 C

11.5 C

12.2 C

66 W/m

0.00 mm

06:45

12.3 C

1006.4 hpa

89 %

8.0 km/h aus 114

12.9 km/h aus S

10.5 C

11.7 C

11.7 C

12.3 C

74 W/m

0.00 mm

06:50

12.4 C

1006.4 hpa

89 %

9.7 km/h aus 117

14.5 km/h aus S

10.6 C

11.6 C

11.6 C

12.4 C

98 W/m

0.00 mm

06:55

12.6 C

1006.4 hpa

89 %

9.7 km/h aus 117

16.1 km/h aus SSW

10.8 C

11.8 C

11.7 C

12.6 C

119 W/m

0.00 mm

07:00

12.8 C

1006.4 hpa

90 %

8.0 km/h aus 117

14.5 km/h aus S

11.2 C

12.4 C

12.3 C

12.9 C

142 W/m

0.00 mm

07:05

13.1 C

1006.4 hpa

90 %

8.0 km/h aus 114

14.5 km/h aus SSW

11.5 C

12.7 C

12.7 C

13.2 C

166 W/m

0.00 mm

07:10

13.5 C

1006.4 hpa

90 %

8.0 km/h aus 114

14.5 km/h aus SSW

11.9 C

13.2 C

13.1 C

13.6 C

187 W/m

0.00 mm

07:15

13.8 C

1006.4 hpa

90 %

9.7 km/h aus 117

16.1 km/h aus S

12.2 C

13.3 C

13.3 C

13.9 C

165 W/m

0.00 mm

07:20

14.1 C

1006.4 hpa

89 %

8.0 km/h aus 117

11.3 km/h aus S

12.3 C

13.8 C

13.8 C

14.1 C

136 W/m

0.00 mm

07:25

14.3 C

1006.4 hpa

89 %

8.0 km/h aus 117

14.5 km/h aus S

12.5 C

14.1 C

14.0 C

14.3 C

160 W/m

0.00 mm

07:30

14.5 C

1006.4 hpa

88 %

8.0 km/h aus 115

14.5 km/h aus S

12.5 C

14.3 C

14.3 C

14.5 C

194 W/m

0.00 mm

07:35

14.7 C

1006.4 hpa

87 %

12.9 km/h aus 114

17.7 km/h aus S

12.6 C

13.7 C

13.7 C

14.7 C

189 W/m

0.00 mm

07:40

15.0 C

1006.4 hpa

86 %

9.7 km/h aus 117

17.7 km/h aus S

12.7 C

14.7 C

14.7 C

15.0 C

164 W/m

0.00 mm

07:45

15.1 C

1006.3 hpa

85 %

8.0 km/h aus 115

14.5 km/h aus S

12.6 C

15.0 C

15.0 C

15.1 C

183 W/m

0.00 mm

07:50

15.3 C

1006.3 hpa

84 %

8.0 km/h aus 116

14.5 km/h aus SSW

12.6 C

15.2 C

15.2 C

15.3 C

255 W/m

0.00 mm

07:55

15.6 C

1006.3 hpa

83 %

6.4 km/h aus 114

12.9 km/h aus S

12.7 C

15.6 C

15.6 C

15.6 C

294 W/m

0.00 mm

08:00

15.9 C

1006.2 hpa

82 %

11.3 km/h aus 116

17.7 km/h aus S

12.9 C

15.6 C

15.6 C

16.0 C

303 W/m

0.00 mm

08:05

16.3 C

1006.2 hpa

80 %

11.3 km/h aus 117

17.7 km/h aus S

12.8 C

16.1 C

16.0 C

16.3 C

245 W/m

0.00 mm

08:10

16.5 C

1006.2 hpa

78 %

11.3 km/h aus 117

19.3 km/h aus S

12.6 C

16.3 C

16.3 C

16.5 C

364 W/m

0.00 mm

08:15

16.8 C

1006.3 hpa

77 %

14.5 km/h aus 115

24.1 km/h aus SSW

12.8 C

15.8 C

15.8 C

16.8 C

390 W/m

0.00 mm

08:20

17.1 C

1006.3 hpa

75 %

9.7 km/h aus 113

17.7 km/h aus S

12.6 C

17.1 C

17.1 C

17.1 C

278 W/m

0.00 mm

08:25

17.3 C

1006.3 hpa

74 %

12.9 km/h aus 117

19.3 km/h aus S

12.7 C

16.8 C

16.8 C

17.3 C

191 W/m

0.00 mm

08:30

17.4 C

1006.1 hpa

73 %

12.9 km/h aus 117

19.3 km/h aus S

12.6 C

16.9 C

16.9 C

17.4 C

204 W/m

0.00 mm

08:35

17.4 C

1006.1 hpa

72 %

11.3 km/h aus 117

22.5 km/h aus S

12.3 C

17.3 C

17.4 C

17.3 C

207 W/m

0.00 mm

08:40

17.6 C

1006.1 hpa

72 %

8.0 km/h aus 114

17.7 km/h aus S

12.4 C

17.5 C

17.6 C

17.5 C

333 W/m

0.00 mm

08:45

17.7 C

1006.2 hpa

71 %

6.4 km/h aus 116

17.7 km/h aus SSW

12.3 C

17.6 C

17.7 C

17.6 C

265 W/m

0.00 mm

08:50

17.8 C

1006.2 hpa

71 %

6.4 km/h aus 117

14.5 km/h aus SSW

12.4 C

17.7 C

17.8 C

17.7 C

341 W/m

0.00 mm

08:55

18.1 C

1006.2 hpa

71 %

8.0 km/h aus 117

16.1 km/h aus S

12.7 C

18.1 C

18.1 C

18.1 C

459 W/m

0.00 mm

09:00

18.3 C

1006.0 hpa

70 %

9.7 km/h aus 116

20.9 km/h aus S

12.8 C

18.3 C

18.3 C

18.3 C

340 W/m

0.00 mm

09:05

18.5 C

1006.0 hpa

69 %

9.7 km/h aus 114

17.7 km/h aus S

12.7 C

18.5 C

18.5 C

18.5 C

345 W/m

0.00 mm

09:10

18.7 C

1006.0 hpa

67 %

11.3 km/h aus 117

20.9 km/h aus S

12.4 C

18.6 C

18.7 C

18.6 C

241 W/m

0.00 mm

09:15

18.7 C

1006.0 hpa

66 %

9.7 km/h aus 116

17.7 km/h aus SSW

12.2 C

18.6 C

18.7 C

18.6 C

332 W/m

0.00 mm

09:20

18.9 C

1006.0 hpa

66 %

9.7 km/h aus 117

17.7 km/h aus S

12.4 C

18.9 C

18.9 C

18.9 C

420 W/m

0.00 mm

09:25

19.3 C

1006.0 hpa

65 %

9.7 km/h aus 114

20.9 km/h aus SW

12.6 C

19.3 C

19.3 C

19.3 C

510 W/m

0.00 mm

09:30

19.8 C

1006.0 hpa

63 %

12.9 km/h aus 116

25.7 km/h aus S

12.6 C

19.4 C

19.4 C

19.8 C

542 W/m

0.00 mm

09:35

20.1 C

1006.0 hpa

62 %

14.5 km/h aus 116

25.7 km/h aus SSW

12.5 C

19.2 C

19.3 C

20.0 C

478 W/m

0.00 mm

09:40

19.7 C

1006.0 hpa

60 %

12.9 km/h aus 118

22.5 km/h aus SSW

11.7 C

19.2 C

19.4 C

19.5 C

326 W/m

0.00 mm

09:45

19.5 C

1005.9 hpa

62 %

14.5 km/h aus 116

20.9 km/h aus SW

12.0 C

18.6 C

18.8 C

19.3 C

392 W/m

0.00 mm

09:50

19.8 C

1005.9 hpa

62 %

9.7 km/h aus 114

20.9 km/h aus SSE

12.3 C

19.7 C

19.8 C

19.7 C

457 W/m

0.00 mm

09:55

20.2 C

1005.9 hpa

62 %

14.5 km/h aus 117

27.4 km/h aus S

12.7 C

19.3 C

19.4 C

20.1 C

477 W/m

0.00 mm

10:00

20.3 C

1005.9 hpa

59 %

12.9 km/h aus 117

25.7 km/h aus S

12.1 C

19.6 C

19.9 C

20.0 C

494 W/m

0.00 mm

10:05

20.6 C

1005.9 hpa

60 %

12.9 km/h aus 117

25.7 km/h aus S

12.5 C

19.8 C

20.2 C

20.2 C

515 W/m

0.00 mm

10:10

20.5 C

1005.9 hpa

58 %

14.5 km/h aus 113

25.7 km/h aus SSW

12.0 C

19.3 C

19.7 C

20.1 C

512 W/m

0.00 mm

10:15

20.8 C

1005.8 hpa

59 %

12.9 km/h aus 116

25.7 km/h aus SSW

12.5 C

20.0 C

20.4 C

20.3 C

556 W/m

0.00 mm

10:20

21.1 C

1005.8 hpa

58 %

12.9 km/h aus 117

24.1 km/h aus S

12.5 C

20.2 C

20.8 C

20.5 C

550 W/m

0.00 mm

10:25

21.4 C

1005.8 hpa

60 %

16.1 km/h aus 116

29.0 km/h aus S

13.3 C

19.8 C

20.2 C

21.0 C

530 W/m

0.00 mm

10:30

21.3 C

1005.7 hpa

59 %

12.9 km/h aus 116

29.0 km/h aus S

13.0 C

20.6 C

21.1 C

20.9 C

499 W/m

0.00 mm

10:35

21.3 C

1005.7 hpa

57 %

16.1 km/h aus 115

25.7 km/h aus S

12.4 C

19.6 C

20.1 C

20.7 C

517 W/m

0.00 mm

10:40

21.2 C

1005.7 hpa

57 %

12.9 km/h aus 117

20.9 km/h aus SSW

12.4 C

20.4 C

20.9 C

20.7 C

553 W/m

0.00 mm

10:45

21.5 C

1005.9 hpa

59 %

14.5 km/h aus 118

25.7 km/h aus S

13.1 C

20.3 C

20.7 C

21.1 C

564 W/m

0.00 mm

10:50

21.5 C

1005.9 hpa

55 %

16.1 km/h aus 116

24.1 km/h aus S

12.1 C

19.7 C

20.3 C

20.9 C

555 W/m

0.00 mm

10:55

21.9 C

1005.9 hpa

57 %

14.5 km/h aus 115

30.6 km/h aus S

13.0 C

20.8 C

21.1 C

21.6 C

545 W/m

0.00 mm

11:00

21.9 C

1005.7 hpa

56 %

16.1 km/h aus 117

27.4 km/h aus S

12.8 C

20.4 C

20.8 C

21.6 C

541 W/m

0.00 mm

11:05

22.1 C

1005.7 hpa

55 %

12.9 km/h aus 115

22.5 km/h aus S

12.6 C

21.4 C

21.8 C

21.7 C

550 W/m

0.00 mm

11:10

22.2 C

1005.7 hpa

57 %

16.1 km/h aus 117

24.1 km/h aus SSW

13.3 C

20.9 C

21.1 C

22.1 C

583 W/m

0.00 mm

11:15

22.3 C

1005.5 hpa

54 %

14.5 km/h aus 114

27.4 km/h aus SW

12.5 C

21.2 C

21.5 C

22.0 C

563 W/m

0.00 mm

11:20

22.2 C

1005.5 hpa

58 %

12.9 km/h aus 116

25.7 km/h aus S

13.6 C

21.8 C

21.9 C

22.1 C

550 W/m

0.00 mm

11:25

22.1 C

1005.5 hpa

55 %

14.5 km/h aus 117

24.1 km/h aus S

12.6 C

21.0 C

21.3 C

21.8 C

510 W/m

0.00 mm

11:30

22.2 C

1005.4 hpa

54 %

16.1 km/h aus 117

27.4 km/h aus S

12.5 C

20.7 C

21.1 C

21.9 C

531 W/m

0.00 mm

11:35

22.2 C

1005.4 hpa

54 %

11.3 km/h aus 115

25.7 km/h aus SSW

12.5 C

21.9 C

22.2 C

21.9 C

545 W/m

0.00 mm

11:40

21.9 C

1005.4 hpa

54 %

17.7 km/h aus 115

32.2 km/h aus SSW

12.2 C

20.1 C

20.5 C

21.5 C

551 W/m

0.00 mm

11:45

22.3 C

1005.3 hpa

56 %

14.5 km/h aus 118

25.7 km/h aus SSW

13.1 C

21.3 C

21.5 C

22.1 C

589 W/m

0.00 mm

11:50

22.6 C

1005.3 hpa

52 %

12.9 km/h aus 116

30.6 km/h aus SW

12.3 C

22.1 C

22.3 C

22.4 C

598 W/m

0.00 mm

11:55

22.6 C

1005.3 hpa

53 %

17.7 km/h aus 116

29.0 km/h aus S

12.5 C

21.1 C

21.2 C

22.4 C

597 W/m

0.00 mm

12:00

23.0 C

1004.9 hpa

52 %

17.7 km/h aus 114

32.2 km/h aus SSW

12.6 C

21.5 C

21.6 C

22.9 C

604 W/m

0.00 mm

12:05

22.7 C

1004.9 hpa

53 %

17.7 km/h aus 117

29.0 km/h aus SSW

12.6 C

21.2 C

21.3 C

22.6 C

597 W/m

0.00 mm

12:10

23.4 C

1004.9 hpa

51 %

14.5 km/h aus 117

30.6 km/h aus SSW

12.7 C

22.6 C

22.7 C

23.3 C

613 W/m

0.00 mm

12:15

23.6 C

1004.9 hpa

50 %

22.5 km/h aus 115

40.2 km/h aus S

12.5 C

21.5 C

21.6 C

23.5 C

614 W/m

0.00 mm

12:20

23.7 C

1004.9 hpa

52 %

16.1 km/h aus 115

35.4 km/h aus S

13.2 C

22.6 C

22.6 C

23.7 C

604 W/m

0.00 mm

12:25

23.8 C

1004.9 hpa

50 %

14.5 km/h aus 116

25.7 km/h aus SSE

12.7 C

23.1 C

23.1 C

23.8 C

529 W/m

0.00 mm

12:30

23.3 C

1004.7 hpa

52 %

9.7 km/h aus 117

20.9 km/h aus SW

12.9 C

23.3 C

23.3 C

23.3 C

605 W/m

0.00 mm

12:35

23.8 C

1004.7 hpa

50 %

20.9 km/h aus 116

37.0 km/h aus S

12.7 C

22.0 C

22.0 C

23.8 C

601 W/m

0.00 mm

12:40

23.8 C

1004.7 hpa

52 %

19.3 km/h aus 116

32.2 km/h aus S

13.3 C

22.3 C

22.2 C

23.9 C

608 W/m

0.00 mm

12:45

23.9 C

1004.4 hpa

51 %

20.9 km/h aus 115

35.4 km/h aus S

13.1 C

22.2 C

22.1 C

24.0 C

602 W/m

0.00 mm

12:50

24.3 C

1004.4 hpa

50 %

20.9 km/h aus 118

35.4 km/h aus S

13.2 C

22.6 C

22.6 C

24.3 C

616 W/m

0.00 mm

12:55

24.2 C

1004.4 hpa

53 %

16.1 km/h aus 116

30.6 km/h aus S

14.0 C

23.3 C

23.1 C

24.3 C

618 W/m

0.00 mm

13:00

23.9 C

1004.4 hpa

48 %

8.0 km/h aus 117

19.3 km/h aus SSW

12.2 C

23.8 C

23.9 C

23.8 C

433 W/m

0.00 mm

13:05

23.4 C

1004.4 hpa

52 %

9.7 km/h aus 114

20.9 km/h aus S

13.0 C

23.4 C

23.4 C

23.4 C

440 W/m

0.00 mm

13:10

23.8 C

1004.4 hpa

49 %

11.3 km/h aus 116

22.5 km/h aus S

12.4 C

23.7 C

23.8 C

23.7 C

632 W/m

0.00 mm

13:15

24.3 C

1004.3 hpa

51 %

12.9 km/h aus 117

22.5 km/h aus S

13.5 C

24.1 C

24.0 C

24.3 C

603 W/m

0.00 mm

13:20

24.2 C

1004.3 hpa

48 %

9.7 km/h aus 116

20.9 km/h aus SSW

12.5 C

24.2 C

24.2 C

24.2 C

538 W/m

0.00 mm

13:25

23.4 C

1004.3 hpa

50 %

12.9 km/h aus 115

22.5 km/h aus SSW

12.4 C

23.1 C

23.2 C

23.3 C

435 W/m

0.00 mm

13:30

23.6 C

1004.3 hpa

50 %

16.1 km/h aus 116

30.6 km/h aus S

12.6 C

22.4 C

22.5 C

23.6 C

441 W/m

0.00 mm

13:35

23.4 C

1004.3 hpa

51 %

14.5 km/h aus 117

24.1 km/h aus S

12.7 C

22.6 C

22.7 C

23.3 C

533 W/m

0.00 mm

13:40

24.2 C

1004.3 hpa

51 %

16.1 km/h aus 116

27.4 km/h aus S

13.4 C

23.2 C

23.1 C

24.2 C

594 W/m

0.00 mm

13:45

24.1 C

1004.2 hpa

48 %

14.5 km/h aus 116

27.4 km/h aus S

12.4 C

23.3 C

23.3 C

24.0 C

479 W/m

0.00 mm

13:50

23.9 C

1004.2 hpa

51 %

9.7 km/h aus 114

20.9 km/h aus S

13.2 C

24.1 C

23.9 C

24.1 C

478 W/m

0.00 mm

13:55

24.3 C

1004.2 hpa

50 %

8.0 km/h aus 117

19.3 km/h aus WSW

13.2 C

24.3 C

24.3 C

24.3 C

581 W/m

0.00 mm

14:00

24.5 C

1004.1 hpa

48 %

14.5 km/h aus 117

25.7 km/h aus S

12.8 C

23.7 C

23.8 C

24.4 C

617 W/m

0.00 mm

14:05

25.1 C

1004.1 hpa

48 %

16.1 km/h aus 116

29.0 km/h aus S

13.3 C

23.8 C

24.0 C

24.9 C

598 W/m

0.00 mm

14:10

25.4 C

1004.1 hpa

47 %

9.7 km/h aus 115

22.5 km/h aus S

13.3 C

25.2 C

25.4 C

25.2 C

566 W/m

0.00 mm

14:15

25.2 C

1003.8 hpa

47 %

11.3 km/h aus 116

22.5 km/h aus S

13.1 C

25.0 C

25.2 C

25.0 C

573 W/m

0.00 mm

14:20

24.2 C

1003.8 hpa

49 %

14.5 km/h aus 117

24.1 km/h aus SSW

12.8 C

23.4 C

23.4 C

24.2 C

370 W/m

0.00 mm

14:25

24.0 C

1003.8 hpa

50 %

11.3 km/h aus 114

27.4 km/h aus SSW

12.9 C

24.1 C

24.0 C

24.1 C

400 W/m

0.00 mm

14:30

24.3 C

1003.7 hpa

49 %

12.9 km/h aus 115

24.1 km/h aus SSE

12.9 C

23.9 C

24.0 C

24.2 C

395 W/m

0.00 mm

14:35

24.3 C

1003.7 hpa

52 %

8.0 km/h aus 116

20.9 km/h aus SSE

13.8 C

24.4 C

24.3 C

24.4 C

431 W/m

0.00 mm

14:40

24.5 C

1003.7 hpa

50 %

11.3 km/h aus 116

25.7 km/h aus SSE

13.4 C

24.5 C

24.5 C

24.5 C

420 W/m

0.00 mm

14:45

24.3 C

1003.7 hpa

48 %

12.9 km/h aus 117

27.4 km/h aus S

12.6 C

23.9 C

24.0 C

24.2 C

473 W/m

0.00 mm

14:50

24.2 C

1003.7 hpa

48 %

12.9 km/h aus 114

25.7 km/h aus SW

12.5 C

23.9 C

23.9 C

24.2 C

379 W/m

0.00 mm

14:55

23.9 C

1003.7 hpa

49 %

9.7 km/h aus 117

22.5 km/h aus SSW

12.6 C

23.9 C

23.9 C

23.9 C

336 W/m

0.00 mm

15:00

24.0 C

1003.5 hpa

51 %

19.3 km/h aus 117

32.2 km/h aus S

13.2 C

22.6 C

22.4 C

24.1 C

379 W/m

0.00 mm

15:05

23.9 C

1003.5 hpa

49 %

16.1 km/h aus 117

27.4 km/h aus S

12.6 C

22.8 C

22.8 C

23.9 C

351 W/m

0.00 mm

15:10

23.8 C

1003.5 hpa

49 %

11.3 km/h aus 115

27.4 km/h aus SSW

12.5 C

23.8 C

23.8 C

23.8 C

351 W/m

0.00 mm

15:15

24.2 C

1003.3 hpa

49 %

8.0 km/h aus 116

17.7 km/h aus SSW

12.8 C

24.2 C

24.2 C

24.2 C

504 W/m

0.00 mm

15:20

24.6 C

1003.3 hpa

48 %

12.9 km/h aus 116

22.5 km/h aus S

12.9 C

24.2 C

24.3 C

24.5 C

538 W/m

0.00 mm

15:25

25.1 C

1003.3 hpa

49 %

16.1 km/h aus 117

30.6 km/h aus S

13.6 C

23.9 C

24.0 C

24.9 C

607 W/m

0.00 mm

15:30

24.7 C

1003.2 hpa

47 %

9.7 km/h aus 115

25.7 km/h aus S

12.6 C

24.6 C

24.7 C

24.6 C

395 W/m

0.00 mm

15:35

24.8 C

1003.2 hpa

49 %

8.0 km/h aus 115

22.5 km/h aus SSW

13.3 C

24.7 C

24.8 C

24.7 C

423 W/m

0.00 mm

15:40

24.2 C

1003.2 hpa

49 %

12.9 km/h aus 117

24.1 km/h aus SSW

12.8 C

23.9 C

23.9 C

24.2 C

369 W/m

0.00 mm

15:45

24.7 C

1003.0 hpa

49 %

9.7 km/h aus 116

22.5 km/h aus SSW

13.2 C

24.6 C

24.7 C

24.6 C

560 W/m

0.00 mm

15:50

24.7 C

1003.0 hpa

47 %

12.9 km/h aus 115

27.4 km/h aus SSW

12.6 C

24.2 C

24.4 C

24.5 C

541 W/m

0.00 mm

15:55

24.9 C

1003.0 hpa

47 %

11.3 km/h aus 115

24.1 km/h aus S

12.8 C

24.7 C

24.9 C

24.7 C

531 W/m

0.00 mm

16:00

25.4 C

1002.8 hpa

49 %

12.9 km/h aus 117

22.5 km/h aus S

13.9 C

25.1 C

25.2 C

25.4 C

593 W/m

0.00 mm

16:05

25.9 C

1002.8 hpa

45 %

9.7 km/h aus 116

20.9 km/h aus S

13.1 C

25.8 C

25.9 C

25.8 C

578 W/m

0.00 mm

16:10

25.7 C

1002.8 hpa

48 %

8.0 km/h aus 117

19.3 km/h aus SSE

13.9 C

25.7 C

25.7 C

25.7 C

571 W/m

0.00 mm

16:15

25.1 C

1002.7 hpa

47 %

11.3 km/h aus 114

20.9 km/h aus SW

13.0 C

24.8 C

25.1 C

24.8 C

359 W/m

0.00 mm

16:20

24.7 C

1002.7 hpa

49 %

11.3 km/h aus 116

24.1 km/h aus SW

13.3 C

24.6 C

24.7 C

24.6 C

324 W/m

0.00 mm

16:25

25.2 C

1002.7 hpa

47 %

14.5 km/h aus 116

32.2 km/h aus S

13.1 C

24.3 C

24.5 C

25.0 C

462 W/m

0.00 mm

16:30

24.8 C

1002.6 hpa

49 %

8.0 km/h aus 115

17.7 km/h aus SSW

13.3 C

24.7 C

24.8 C

24.7 C

283 W/m

0.00 mm

16:35

25.2 C

1002.6 hpa

48 %

16.1 km/h aus 114

33.8 km/h aus S

13.4 C

24.0 C

24.2 C

25.1 C

383 W/m

0.00 mm

16:40

25.1 C

1002.6 hpa

47 %

14.5 km/h aus 116

24.1 km/h aus SSW

13.0 C

24.2 C

24.4 C

24.8 C

380 W/m

0.00 mm

16:45

24.7 C

1002.5 hpa

49 %

11.3 km/h aus 116

19.3 km/h aus SW

13.2 C

24.6 C

24.7 C

24.6 C

331 W/m

0.00 mm

16:50

24.9 C

1002.5 hpa

51 %

8.0 km/h aus 117

19.3 km/h aus S

14.1 C

24.9 C

24.9 C

24.9 C

400 W/m

0.00 mm

16:55

24.9 C

1002.5 hpa

49 %

9.7 km/h aus 115

19.3 km/h aus S

13.5 C

24.8 C

24.9 C

24.8 C

258 W/m

0.00 mm

17:00

24.6 C

1002.4 hpa

48 %

11.3 km/h aus 115

20.9 km/h aus SSW

12.8 C

24.4 C

24.6 C

24.4 C

256 W/m

0.00 mm

17:05

24.5 C

1002.4 hpa

50 %

14.5 km/h aus 117

24.1 km/h aus S

13.4 C

23.8 C

23.8 C

24.5 C

240 W/m

0.00 mm

17:10

24.6 C

1002.4 hpa

49 %

6.4 km/h aus 117

14.5 km/h aus SSW

13.1 C

24.5 C

24.6 C

24.5 C

206 W/m

0.00 mm

17:15

24.4 C

1002.3 hpa

50 %

3.2 km/h aus 114

12.9 km/h aus SW

13.3 C

24.4 C

24.4 C

24.4 C

177 W/m

0.00 mm

17:20

24.3 C

1002.3 hpa

49 %

6.4 km/h aus 116

17.7 km/h aus SSW

12.9 C

24.3 C

24.3 C

24.3 C

192 W/m

0.00 mm

17:25

24.3 C

1002.3 hpa

50 %

4.8 km/h aus 117

16.1 km/h aus SSW

13.2 C

24.3 C

24.3 C

24.3 C

188 W/m

0.00 mm

17:30

24.5 C

1002.1 hpa

50 %

6.4 km/h aus 117

16.1 km/h aus SSW

13.4 C

24.5 C

24.5 C

24.5 C

238 W/m

0.00 mm

17:35

24.9 C

1002.1 hpa

51 %

6.4 km/h aus 116

17.7 km/h aus S

14.1 C

24.8 C

24.9 C

24.8 C

430 W/m

0.00 mm

17:40

25.5 C

1002.1 hpa

50 %

14.5 km/h aus 115

27.4 km/h aus S

14.3 C

24.8 C

24.8 C

25.5 C

497 W/m

0.00 mm

17:45

25.2 C

1001.9 hpa

48 %

14.5 km/h aus 117

25.7 km/h aus S

13.4 C

24.4 C

24.6 C

25.1 C

205 W/m

0.00 mm

17:50

24.9 C

1001.9 hpa

48 %

9.7 km/h aus 116

29.0 km/h aus SSW

13.1 C

24.7 C

24.9 C

24.7 C

193 W/m

0.00 mm

17:55

24.6 C

1001.9 hpa

49 %

11.3 km/h aus 115

22.5 km/h aus SW

13.2 C

24.6 C

24.6 C

24.6 C

184 W/m

0.00 mm

18:00

24.8 C

1001.8 hpa

49 %

11.3 km/h aus 114

22.5 km/h aus SW

13.3 C

24.7 C

24.8 C

24.7 C

414 W/m

0.00 mm

18:05

25.1 C

1001.8 hpa

50 %

12.9 km/h aus 118

22.5 km/h aus S

14.0 C

24.7 C

24.8 C

25.0 C

332 W/m

0.00 mm

18:10

24.9 C

1001.8 hpa

48 %

12.9 km/h aus 117

22.5 km/h aus SSW

13.2 C

24.5 C

24.7 C

24.8 C

107 W/m

0.00 mm

18:15

24.9 C

1001.8 hpa

49 %

9.7 km/h aus 117

17.7 km/h aus S

13.5 C

24.8 C

24.9 C

24.8 C

103 W/m

0.00 mm

18:20

24.9 C

1001.8 hpa

49 %

8.0 km/h aus 115

12.9 km/h aus SSW

13.4 C

24.8 C

24.9 C

24.8 C

143 W/m

0.00 mm

18:25

24.9 C

1001.8 hpa

50 %

8.0 km/h aus 116

16.1 km/h aus SSW

13.8 C

24.8 C

24.9 C

24.8 C

169 W/m

0.00 mm

18:30

24.7 C

1001.6 hpa

49 %

9.7 km/h aus 117

22.5 km/h aus SW

13.3 C

24.6 C

24.7 C

24.6 C

173 W/m

0.00 mm

18:35

24.6 C

1001.6 hpa

50 %

6.4 km/h aus 117

16.1 km/h aus S

13.5 C

24.6 C

24.6 C

24.6 C

114 W/m

0.00 mm

18:40

24.6 C

1001.6 hpa

50 %

6.4 km/h aus 116

14.5 km/h aus SSW

13.5 C

24.6 C

24.6 C

24.6 C

95 W/m

0.00 mm

18:45

24.4 C

1001.4 hpa

52 %

6.4 km/h aus 115

12.9 km/h aus SSW

13.9 C

24.5 C

24.4 C

24.5 C

159 W/m

0.00 mm

18:50

24.3 C

1001.4 hpa

52 %

11.3 km/h aus 116

17.7 km/h aus S

13.8 C

24.4 C

24.3 C

24.4 C

147 W/m

0.00 mm

18:55

24.4 C

1001.4 hpa

52 %

6.4 km/h aus 116

16.1 km/h aus S

13.9 C

24.5 C

24.4 C

24.5 C

250 W/m

0.00 mm

19:00

24.4 C

1001.2 hpa

52 %

11.3 km/h aus 116

17.7 km/h aus S

13.9 C

24.5 C

24.4 C

24.5 C

105 W/m

0.00 mm

19:05

24.5 C

1001.2 hpa

51 %

14.5 km/h aus 112

24.1 km/h aus S

13.7 C

23.8 C

23.8 C

24.5 C

90 W/m

0.00 mm

19:10

24.6 C

1001.2 hpa

52 %

11.3 km/h aus 117

19.3 km/h aus S

14.0 C

24.6 C

24.6 C

24.6 C

119 W/m

0.00 mm

19:15

24.6 C

1001.2 hpa

51 %

16.1 km/h aus 116

25.7 km/h aus S

13.8 C

23.6 C

23.6 C

24.6 C

101 W/m

0.00 mm

19:20

24.6 C

1001.2 hpa

51 %

16.1 km/h aus 117

25.7 km/h aus S

13.7 C

23.5 C

23.5 C

24.6 C

86 W/m

0.00 mm

19:25

24.5 C

1001.2 hpa

50 %

11.3 km/h aus 115

22.5 km/h aus SSW

13.4 C

24.5 C

24.5 C

24.5 C

65 W/m

0.00 mm

19:30

24.4 C

1001.2 hpa

51 %

12.9 km/h aus 115

20.9 km/h aus S

13.6 C

24.2 C

24.2 C

24.5 C

54 W/m

0.00 mm

19:35

24.4 C

1001.2 hpa

51 %

11.3 km/h aus 116

17.7 km/h aus S

13.6 C

24.4 C

24.4 C

24.4 C

53 W/m

0.00 mm

19:40

24.3 C

1001.2 hpa

51 %

9.7 km/h aus 117

16.1 km/h aus S

13.5 C

24.4 C

24.3 C

24.4 C

50 W/m

0.00 mm

19:45

24.2 C

1001.1 hpa

52 %

8.0 km/h aus 116

14.5 km/h aus SSW

13.7 C

24.3 C

24.2 C

24.3 C

54 W/m

0.00 mm

19:50

24.1 C

1001.1 hpa

53 %

4.8 km/h aus 115

9.7 km/h aus SSW

13.9 C

24.3 C

24.1 C

24.3 C

45 W/m

0.00 mm

19:55

23.9 C

1001.1 hpa

54 %

4.8 km/h aus 117

9.7 km/h aus SSW

14.1 C

24.2 C

23.9 C

24.2 C

34 W/m

0.00 mm

20:00

23.7 C

1001.0 hpa

54 %

4.8 km/h aus 117

16.1 km/h aus SSW

13.9 C

23.9 C

23.7 C

23.9 C

33 W/m

0.00 mm

20:05

23.4 C

1001.0 hpa

55 %

1.6 km/h aus 115

4.8 km/h aus SSW

13.9 C

23.6 C

23.4 C

23.6 C

36 W/m

0.00 mm

20:10

23.3 C

1001.0 hpa

56 %

3.2 km/h aus 114

9.7 km/h aus SSW

14.0 C

23.4 C

23.3 C

23.4 C

37 W/m

0.00 mm

20:15

23.1 C

1001.0 hpa

57 %

4.8 km/h aus 117

9.7 km/h aus SSW

14.1 C

23.3 C

23.1 C

23.3 C

32 W/m

0.00 mm

20:20

22.9 C

1001.0 hpa

58 %

1.6 km/h aus 117

4.8 km/h aus SSW

14.2 C

23.1 C

22.9 C

23.1 C

23 W/m

0.00 mm

20:25

22.8 C

1001.0 hpa

59 %

3.2 km/h aus 117

8.0 km/h aus SSW

14.3 C

22.9 C

22.8 C

22.9 C

20 W/m

0.00 mm

20:30

22.6 C

1000.9 hpa

59 %

4.8 km/h aus 114

8.0 km/h aus SSW

14.1 C

22.6 C

22.6 C

22.6 C

16 W/m

0.00 mm

20:35

22.4 C

1000.9 hpa

60 %

4.8 km/h aus 115

6.4 km/h aus SSW

14.3 C

22.5 C

22.4 C

22.5 C

18 W/m

0.00 mm

20:40

22.3 C

1000.9 hpa

60 %

4.8 km/h aus 117

8.0 km/h aus SSW

14.2 C

22.3 C

22.3 C

22.3 C

12 W/m

0.00 mm

20:45

22.2 C

1000.7 hpa

60 %

6.4 km/h aus 117

9.7 km/h aus SSW

14.1 C

22.2 C

22.2 C

22.2 C

6 W/m

0.00 mm

20:50

22.2 C

1000.7 hpa

60 %

6.4 km/h aus 115

16.1 km/h aus S

14.0 C

22.1 C

22.2 C

22.1 C

3 W/m

0.00 mm

20:55

22.2 C

1000.7 hpa

60 %

8.0 km/h aus 115

11.3 km/h aus S

14.0 C

22.1 C

22.2 C

22.1 C

3 W/m

0.00 mm

21:00

22.1 C

1000.7 hpa

60 %

8.0 km/h aus 116

16.1 km/h aus S

14.0 C

22.0 C

22.1 C

22.0 C

5 W/m

0.00 mm

21:05

22.1 C

1000.7 hpa

59 %

6.4 km/h aus 116

14.5 km/h aus S

13.7 C

21.9 C

22.1 C

21.9 C

3 W/m

0.00 mm

21:10

22.0 C

1000.7 hpa

59 %

6.4 km/h aus 117

16.1 km/h aus S

13.6 C

21.8 C

22.0 C

21.8 C

0 W/m

0.00 mm

21:15

22.0 C

1000.9 hpa

59 %

6.4 km/h aus 114

20.9 km/h aus S

13.6 C

21.8 C

22.0 C

21.8 C

0 W/m

0.00 mm

21:20

22.1 C

1000.9 hpa

58 %

11.3 km/h aus 118

20.9 km/h aus SW

13.4 C

21.8 C

22.1 C

21.8 C

0 W/m

0.00 mm

21:25

22.2 C

1000.9 hpa

57 %

9.7 km/h aus 115

24.1 km/h aus S

13.2 C

21.9 C

22.2 C

21.9 C

0 W/m

0.00 mm

21:30

22.3 C

1001.1 hpa

57 %

8.0 km/h aus 117

17.7 km/h aus S

13.3 C

22.1 C

22.3 C

22.1 C

0 W/m

0.00 mm

21:35

22.3 C

1001.1 hpa

57 %

4.8 km/h aus 115

11.3 km/h aus WSW

13.4 C

22.2 C

22.3 C

22.2 C

0 W/m

0.00 mm

21:40

22.3 C

1001.1 hpa

57 %

1.6 km/h aus 115

6.4 km/h aus SW

13.4 C

22.2 C

22.3 C

22.2 C

0 W/m

0.00 mm

21:45

22.3 C

1001.1 hpa

57 %

1.6 km/h aus 117

4.8 km/h aus WSW

13.4 C

22.2 C

22.3 C

22.2 C

0 W/m

0.00 mm

21:50

22.2 C

1001.1 hpa

58 %

3.2 km/h aus 117

14.5 km/h aus SSW

13.6 C

22.1 C

22.2 C

22.1 C

0 W/m

0.00 mm

21:55

22.2 C

1001.1 hpa

58 %

3.2 km/h aus 116

9.7 km/h aus SSW

13.5 C

22.0 C

22.2 C

22.0 C

0 W/m

0.00 mm

22:00

22.1 C

1001.2 hpa

58 %

4.8 km/h aus 113

9.7 km/h aus SSW

13.4 C

21.8 C

22.1 C

21.8 C

0 W/m

0.00 mm

22:05

22.0 C

1001.2 hpa

59 %

3.2 km/h aus 117

6.4 km/h aus SSW

13.6 C

21.8 C

22.0 C

21.8 C

0 W/m

0.00 mm

22:10

21.9 C

1001.2 hpa

59 %

3.2 km/h aus 116

9.7 km/h aus SSW

13.5 C

21.7 C

21.9 C

21.7 C

0 W/m

0.00 mm

22:15

21.8 C

1001.2 hpa

59 %

3.2 km/h aus 117

8.0 km/h aus SSW

13.4 C

21.5 C

21.8 C

21.5 C

0 W/m

0.00 mm

22:20

21.7 C

1001.2 hpa

60 %

4.8 km/h aus 116

11.3 km/h aus SSW

13.6 C

21.4 C

21.7 C

21.4 C

0 W/m

0.00 mm

22:25

21.5 C

1001.2 hpa

61 %

6.4 km/h aus 115

16.1 km/h aus SSW

13.7 C

21.2 C

21.5 C

21.2 C

0 W/m

0.00 mm

22:30

21.4 C

1001.8 hpa

62 %

8.0 km/h aus 117

40.2 km/h aus W

13.8 C

21.1 C

21.4 C

21.1 C

0 W/m

0.00 mm

22:35

21.1 C

1001.8 hpa

64 %

17.7 km/h aus 117

33.8 km/h aus WSW

14.0 C

19.4 C

19.6 C

20.8 C

0 W/m

0.00 mm

22:40

20.6 C

1001.8 hpa

66 %

16.1 km/h aus 113

30.6 km/h aus WNW

14.0 C

19.4 C

19.4 C

20.6 C

0 W/m

0.00 mm

22:45

20.3 C

1002.4 hpa

68 %

8.0 km/h aus 114

24.1 km/h aus SW

14.2 C

20.4 C

20.3 C

20.4 C

0 W/m

0.00 mm

22:50

19.9 C

1002.4 hpa

69 %

9.7 km/h aus 116

22.5 km/h aus W

14.1 C

20.2 C

19.9 C

20.2 C

0 W/m

0.00 mm

22:55

19.7 C

1002.4 hpa

71 %

8.0 km/h aus 116

22.5 km/h aus WSW

14.3 C

19.9 C

19.7 C

19.9 C

0 W/m

0.00 mm

23:00

19.4 C

1002.6 hpa

72 %

9.7 km/h aus 116

22.5 km/h aus W

14.3 C

19.7 C

19.4 C

19.7 C

0 W/m

0.00 mm

23:05

19.1 C

1002.6 hpa

73 %

9.7 km/h aus 115

24.1 km/h aus SW

14.1 C

19.3 C

19.1 C

19.3 C

0 W/m

0.00 mm

23:10

18.7 C

1002.6 hpa

74 %

9.7 km/h aus 116

29.0 km/h aus SW

14.0 C

18.9 C

18.7 C

18.9 C

0 W/m

0.00 mm

23:15

18.4 C

1002.4 hpa

75 %

6.4 km/h aus 117

19.3 km/h aus SW

13.9 C

18.6 C

18.4 C

18.6 C

0 W/m

0.00 mm

23:20

18.2 C

1002.4 hpa

76 %

3.2 km/h aus 117

8.0 km/h aus WSW

13.9 C

18.4 C

18.2 C

18.4 C

0 W/m

0.00 mm

23:25

18.1 C

1002.4 hpa

76 %

3.2 km/h aus 118

8.0 km/h aus SW

13.8 C

18.2 C

18.1 C

18.2 C

0 W/m

0.00 mm

23:30

17.9 C

1002.3 hpa

77 %

3.2 km/h aus 114

9.7 km/h aus SSW

13.9 C

18.1 C

17.9 C

18.1 C

0 W/m

0.00 mm

23:35

17.8 C

1002.3 hpa

77 %

1.6 km/h aus 117

4.8 km/h aus SW

13.7 C

18.0 C

17.8 C

18.0 C

0 W/m

0.00 mm

23:40

17.8 C

1002.3 hpa

77 %

1.6 km/h aus 117

4.8 km/h aus SW

13.7 C

17.9 C

17.8 C

17.9 C

0 W/m

0.00 mm

23:45

17.7 C

1002.7 hpa

78 %

3.2 km/h aus 117

8.0 km/h aus SSW

13.8 C

17.8 C

17.7 C

17.8 C

0 W/m

0.00 mm

23:50

17.6 C

1002.7 hpa

78 %

3.2 km/h aus 115

9.7 km/h aus S

13.7 C

17.8 C

17.6 C

17.8 C

0 W/m

0.00 mm

23:55

17.6 C

1002.7 hpa

79 %

4.8 km/h aus 115

9.7 km/h aus S

13.9 C

17.7 C

17.6 C

17.7 C

0 W/m

0.00 mm